[[{"header":{"parameterUnit":"m.s-1","parameterCategory":1,"la1":30.2991,"la2":30.254,"lo1":-89.0895,"lo2":-89.0444,"dy":0.0017,"dx":0.0017,"nx":28,"ny":28,"refTime":"2025-05-25T03:00:00:Z","depth":0,"parameterNumber":2,"parameterNumberName":"U-component_of_WINDS"},"data":[0,0,0,0,0,0,0,0,0,0,0,0,0,0,0,0,0,0,0,0,0,0,0,0,0,0,0,0,0,0,0,0,0,0,0,0,0,0,0,0,0,0,0,0,0,0,0,0,0,0,0,0,0,0,0,0,0,0,1.9458,1.9459,0,1.9558,1.9559,1.956,1.9552,1.955,1.9549,1.9547,1.965,1.9654,1.9658,0,0,0,0,0,0,0,0,0,0,0,0,0,1.9259,1.9263,1.9458,1.9459,1.946,1.9557,1.9559,1.956,1.9552,1.955,1.9548,1.9547,1.9649,1.9653,1.9658,0,0,0,0,0,0,0,0,0,0,0,0,0,1.9351,1.9264,1.9457,1.9468,1.947,1.9557,1.9559,1.956,1.9553,1.955,1.9548,1.9546,1.9647,1.9653,1.9659,1.9743,0,0,1.9678,1.9681,0,0,0,0,0,0,0,0,1.9346,1.9358,1.9465,1.9467,1.947,1.954,1.9526,1.9622,1.9553,1.9521,1.9547,1.9545,1.9615,1.9624,1.9648,1.9747,1.9752,1.9679,1.9682,1.9685,1.9687,0,0,0,0,0,0,0,1.9339,1.9354,1.9497,1.9467,1.9469,1.9467,1.9478,1.9544,1.958,1.9524,1.9523,1.9535,1.9616,1.9642,1.965,1.9753,1.9678,1.9684,1.9688,1.969,1.9925,1.9927,0,0,0,0,0,0,1.9331,1.9349,1.9494,1.95,1.9401,1.9473,1.9485,1.952,1.9579,1.9586,1.9537,1.9535,1.9632,1.9643,1.9653,1.9754,1.9685,1.9691,1.9694,1.9923,1.9926,1.9928,0,0,0,0,0,0,1.9327,1.9344,1.949,1.9424,1.9443,1.9479,1.9518,1.9523,1.9548,1.9589,1.9595,1.9557,1.9631,1.9645,1.972,1.9757,1.9694,1.9699,1.992,1.9923,1.9927,1.9956,0,0,0,0,0,0,1.9321,1.9342,1.9375,1.9425,1.9446,1.9555,1.952,1.9526,1.9559,1.9557,1.9609,1.9616,1.963,1.9711,1.9726,1.9765,1.9704,1.9916,1.9921,1.9926,1.9951,1.996,1.9967,0,0,0,0,0,1.9314,1.9379,1.9376,1.9394,1.9487,1.9557,1.9569,1.9584,1.9562,1.9594,1.962,1.9614,1.9751,1.9719,1.9736,1.9777,1.9914,1.992,1.9925,1.9948,1.9958,1.9967,0,0,0,0,0,0,1.9332,1.9386,1.9383,1.9467,1.9508,1.9556,1.9597,1.9595,1.9643,1.9639,1.9656,1.9668,1.9743,1.9768,1.9731,1.986,1.983,1.9839,1.9841,1.9851,1.9858,1.985,1.9709,0,0,0,0,0,1.9346,1.9398,1.9442,1.9512,1.9532,1.9561,1.9592,1.96,1.9643,1.966,1.9692,1.9734,1.9786,1.982,1.9871,1.9955,1.9966,1.9992,2.0,2.0006,2.0013,2.0059,2.007,1.9947,1.9947,1.9947,0,0,1.9375,1.9411,1.9443,1.9516,1.9549,1.9602,1.9576,1.9634,1.9673,1.9669,1.9742,1.9766,1.9814,1.9894,1.9931,1.9917,2.005,2.0013,2.0018,2.0022,2.0066,2.0077,2.0087,1.9951,1.995,1.9949,0,0,1.9454,1.9487,1.9548,1.9581,1.963,1.9649,1.9663,1.9712,1.9728,1.9801,1.9799,1.9846,1.9936,1.997,1.9999,2.009,2.0086,2.0107,2.0147,2.0191,2.02,2.0209,2.024,2.0251,2.0114,2.0114,2.0114,0,1.9484,1.9564,1.9579,1.9637,1.9669,1.9668,1.9729,1.976,1.9824,1.9846,1.9829,1.9941,1.9974,2.0061,2.0083,2.0107,2.0123,2.01,2.0198,2.0207,2.0215,2.0245,2.0256,2.0116,2.0116,2.0116,2.0116,0,1.9597,1.9653,1.9696,1.9756,1.9793,1.9853,1.9877,1.9912,1.9917,1.9938,2.0011,2.005,2.0108,2.0129,2.0135,2.0217,2.0207,2.0194,2.0163,2.0228,2.0256,2.0268,2.0119,2.0119,2.0118,2.0117,0,0,1.969,1.9758,1.9773,1.98,1.9854,1.9897,1.9957,2.0013,2.0042,2.0086,2.0135,2.0211,2.0199,2.0232,2.0242,2.0281,2.0349,2.0263,2.0264,2.0276,2.044,2.0448,2.0461,2.0346,2.0349,2.0351,2.0435,0,1.9773,1.9878,1.9893,1.9985,2.0035,2.0035,2.0086,2.0125,2.0145,2.0191,2.0214,2.0267,2.0249,2.0268,2.0307,2.0332,2.0381,2.0327,2.0391,2.0393,2.0378,2.0476,2.0485,2.0562,2.0446,2.0448,2.045,0,1.9885,1.9931,2.0027,2.0073,2.0095,2.0141,2.0193,2.0237,2.0281,2.0293,2.0329,2.0334,2.0395,2.0363,2.0446,2.0408,2.0436,2.0452,2.0456,2.0461,2.0424,2.0482,2.0588,2.0599,2.0468,2.0466,2.0465,0,1.9941,2.0027,2.0096,2.0119,2.0175,2.0207,2.0232,2.0273,2.0305,2.0351,2.0372,2.0424,2.0452,2.0493,2.0511,2.0486,2.0593,2.0563,2.0604,2.0603,2.0625,2.0623,2.0735,2.0645,2.0645,2.0645,2.0645,0,2.0031,2.009,2.0121,2.0163,2.0229,2.0246,2.031,2.0334,2.0371,2.0417,2.042,2.0464,2.0486,2.0533,2.0548,2.0613,2.0627,2.0638,2.0641,2.0637,2.0635,2.0654,2.0648,2.0648,2.0647,2.0647,2.0646,0,2.0104,2.0128,2.0202,2.0249,2.0262,2.0308,2.0348,2.0388,2.0409,2.0467,2.0482,2.0514,2.0569,2.0591,2.0659,2.0669,2.0744,2.0744,2.0729,2.073,2.0769,2.0764,2.0895,2.0913,2.0813,2.0814,2.0815,0,2.016,2.0205,2.0256,2.0287,2.0313,2.0363,2.0396,2.0415,2.0448,2.0501,2.0535,2.059,2.0634,2.0722,2.0751,2.0803,2.0803,2.0845,2.0811,2.0805,2.0802,2.0798,2.0802,2.0851,2.0852,2.0853,2.0854,0,2.0255,2.0264,2.0311,2.0363,2.0401,2.0443,2.0483,2.0508,2.0533,2.0571,2.0627,2.0662,2.073,2.0784,2.0837,2.0863,2.0862,2.0865,2.0876,2.0872,2.0861,2.0865,2.0745,2.0861,2.086,2.086,2.0859,2.0859,2.032,2.0359,2.0401,2.0453,2.0485,2.0523,2.0563,2.0588,2.0635,2.0692,2.07,2.076,2.0801,2.0872,2.09,2.0946,2.0936,2.0953,2.0957,2.0961,2.0963,2.0855,2.0957,2.0956,2.0956,2.0956,2.0956,0,2.0414,2.0441,2.0489,2.0544,2.0585,2.0581,2.0625,2.066,2.0712,2.0751,2.0794,2.0858,2.0911,2.0944,2.0996,2.1027,2.1028,2.104,2.1037,2.1043,2.097,2.0954,2.1038,2.1038,2.1038,2.1038,2.1038,2.1038,2.0468,2.0533,2.0547,2.0629,2.0656,2.0714,2.0739,2.0773,2.0804,2.0875,2.0918,2.0939,2.0976,2.1031,2.1079,2.1087,2.1105,2.1118,2.1126,2.1057,2.1048,2.104,2.1024,2.1122,2.1123,2.1194,2.1195,2.1195]},{"header":{"parameterUnit":"m.s-1","parameterCategory":1,"la1":30.2991,"la2":30.254,"lo1":-89.0895,"lo2":-89.0444,"dy":0.0017,"dx":0.0017,"nx":28,"ny":28,"refTime":"2025-05-25T03:00:00:Z","depth":0,"parameterNumber":3,"parameterNumberName":"V-component_of_WINDS"},"data":[0,0,0,0,0,0,0,0,0,0,0,0,0,0,0,0,0,0,0,0,0,0,0,0,0,0,0,0,0,0,0,0,0,0,0,0,0,0,0,0,0,0,0,0,0,0,0,0,0,0,0,0,0,0,0,0,0,0,1.4893,1.4894,0,1.496,1.4961,1.4962,1.4949,1.4948,1.4947,1.4945,1.5012,1.5015,1.5018,0,0,0,0,0,0,0,0,0,0,0,0,0,1.4753,1.4756,1.4893,1.4894,1.4895,1.496,1.4961,1.4962,1.4949,1.4948,1.4946,1.4945,1.5011,1.5014,1.5018,0,0,0,0,0,0,0,0,0,0,0,0,0,1.4816,1.4756,1.4893,1.4897,1.4898,1.496,1.4961,1.4962,1.4949,1.4948,1.4946,1.4944,1.501,1.5014,1.5018,1.5081,0,0,1.5031,1.5033,0,0,0,0,0,0,0,0,1.4813,1.4821,1.4895,1.4897,1.4898,1.4944,1.4936,1.5002,1.495,1.493,1.4945,1.4943,1.4991,1.4997,1.5013,1.5084,1.5087,1.5032,1.5034,1.5036,1.5038,0,0,0,0,0,0,0,1.4808,1.4818,1.492,1.4896,1.4898,1.4894,1.4901,1.4948,1.4969,1.4931,1.4931,1.4939,1.4991,1.5009,1.5014,1.5088,1.5032,1.5036,1.5038,1.504,1.5212,1.5214,0,0,0,0,0,0,1.4803,1.4815,1.4918,1.4922,1.485,1.4898,1.4906,1.4931,1.4969,1.4973,1.494,1.4938,1.5002,1.5009,1.5017,1.5092,1.5036,1.504,1.5043,1.521,1.5212,1.5214,0,0,0,0,0,0,1.48,1.4812,1.4915,1.4868,1.4881,1.4902,1.4931,1.4933,1.4951,1.4976,1.4979,1.4955,1.5001,1.5011,1.5065,1.5094,1.5042,1.5046,1.5208,1.5211,1.5213,1.5243,0,0,0,0,0,0,1.4796,1.4811,1.4836,1.4869,1.4883,1.4963,1.4933,1.4936,1.4959,1.4957,1.499,1.4994,1.5,1.5058,1.5069,1.5099,1.505,1.5205,1.5209,1.5212,1.524,1.5247,1.5253,0,0,0,0,0,1.4791,1.4841,1.4837,1.485,1.4915,1.4965,1.4973,1.498,1.4961,1.4986,1.5001,1.4993,1.5089,1.5064,1.5076,1.5108,1.5203,1.5208,1.5212,1.5237,1.5245,1.5253,0,0,0,0,0,0,1.4811,1.4846,1.4842,1.4904,1.4932,1.4962,1.4994,1.4989,1.5022,1.5018,1.5025,1.5033,1.5088,1.5103,1.5075,1.517,1.5143,1.515,1.5158,1.5166,1.5173,1.5168,1.5053,0,0,0,0,0,1.4823,1.4861,1.4889,1.4941,1.4955,1.4972,1.4994,1.4997,1.5026,1.5037,1.5056,1.5084,1.512,1.5144,1.5179,1.5241,1.5248,1.5269,1.5275,1.5281,1.5287,1.5321,1.533,1.5229,1.5229,1.5229,0,0,1.4847,1.4871,1.4895,1.4946,1.4968,1.5006,1.4982,1.5024,1.5053,1.5043,1.5096,1.5111,1.5142,1.52,1.5227,1.5215,1.5316,1.5286,1.5291,1.5294,1.5326,1.5336,1.5345,1.5232,1.5232,1.5231,0,0,1.4912,1.4934,1.498,1.5002,1.5035,1.5046,1.5057,1.5088,1.5098,1.5151,1.5144,1.5178,1.524,1.5263,1.5282,1.5354,1.5347,1.5365,1.54,1.5432,1.544,1.5448,1.5473,1.5482,1.5371,1.5371,1.5371,0,1.4939,1.4998,1.5004,1.5047,1.5069,1.5063,1.5109,1.5129,1.5172,1.5187,1.5173,1.5251,1.5271,1.5335,1.5352,1.5368,1.538,1.5362,1.5439,1.5446,1.5453,1.5477,1.5487,1.5373,1.5373,1.5372,1.5372,0,1.5028,1.5069,1.5102,1.5144,1.517,1.5214,1.5226,1.5252,1.5252,1.5264,1.5317,1.5341,1.5381,1.5396,1.5396,1.5459,1.545,1.5437,1.5411,1.5464,1.5488,1.5497,1.5376,1.5375,1.5374,1.5374,0,0,1.5109,1.5153,1.5165,1.5184,1.5219,1.525,1.5293,1.5332,1.5354,1.5383,1.5419,1.5472,1.546,1.5482,1.5484,1.5513,1.5569,1.5497,1.5497,1.5509,1.5639,1.5649,1.566,1.5564,1.5566,1.5567,1.5636,0,1.5177,1.5255,1.5261,1.5331,1.5368,1.5361,1.5399,1.5424,1.5436,1.5469,1.5481,1.5519,1.55,1.5513,1.5541,1.5556,1.5595,1.5551,1.5597,1.5599,1.5591,1.5672,1.5683,1.5748,1.5646,1.5647,1.5648,0,1.5268,1.53,1.5373,1.5403,1.5419,1.5452,1.5488,1.552,1.5548,1.5554,1.5579,1.5577,1.5621,1.5592,1.5652,1.5622,1.5641,1.5651,1.5654,1.5659,1.5627,1.568,1.5768,1.5778,1.5663,1.5661,1.566,0,1.5319,1.5381,1.5432,1.5448,1.5484,1.5508,1.5524,1.555,1.5573,1.5604,1.5618,1.5654,1.5673,1.57,1.5708,1.5686,1.5767,1.574,1.5774,1.5774,1.5792,1.5791,1.5885,1.5803,1.5803,1.5803,1.5803,0,1.5395,1.544,1.5456,1.5488,1.5538,1.5544,1.5593,1.5608,1.5631,1.5665,1.5661,1.5692,1.5701,1.5734,1.574,1.5788,1.5797,1.5803,1.5804,1.5804,1.5803,1.5817,1.5813,1.5805,1.5805,1.5804,1.5804,0,1.5462,1.5474,1.553,1.5559,1.5568,1.5603,1.5628,1.5658,1.5668,1.5711,1.5722,1.5739,1.5777,1.5787,1.5833,1.5837,1.5895,1.5891,1.5886,1.5886,1.5919,1.5916,1.6027,1.6041,1.5949,1.595,1.5951,0,1.551,1.5545,1.5577,1.56,1.5617,1.5654,1.5677,1.5684,1.5708,1.5742,1.5768,1.5806,1.5837,1.5899,1.5914,1.5949,1.5947,1.5983,1.5952,1.5951,1.5948,1.5946,1.595,1.5989,1.599,1.5991,1.5992,0,1.5594,1.5598,1.5632,1.5668,1.5696,1.5725,1.5752,1.577,1.5781,1.5808,1.5848,1.5872,1.5919,1.5956,1.5991,1.6007,1.6001,1.6001,1.6011,1.6012,1.6007,1.601,1.5902,1.5999,1.5998,1.5998,1.5997,1.5997,1.5653,1.5684,1.5711,1.5749,1.577,1.5796,1.5825,1.584,1.5873,1.5912,1.5914,1.5957,1.5983,1.603,1.6047,1.608,1.6069,1.6083,1.6087,1.609,1.6094,1.6001,1.6086,1.6086,1.6086,1.6086,1.6086,0,1.5738,1.5755,1.5789,1.5828,1.5857,1.5849,1.5879,1.5904,1.5942,1.5967,1.5997,1.6042,1.6079,1.6097,1.6133,1.6156,1.6154,1.6165,1.6164,1.6167,1.6101,1.6089,1.6166,1.6166,1.6166,1.6166,1.6166,1.6166,1.5785,1.5836,1.5843,1.5904,1.5921,1.5963,1.5981,1.6004,1.6024,1.6075,1.6105,1.6117,1.6139,1.6176,1.6209,1.6213,1.6226,1.6239,1.6242,1.618,1.6172,1.6164,1.6153,1.6242,1.6242,1.6305,1.6306,1.6306]}]]